Data No, UTC Date,UTC Time,Latitude,Longitude,Course(deg),Temp(degC),Sal(psu)
778,2021/5/18,12:57,35-35.74N,139-47.17E,207,20.112,24.9716
779,2021/5/18,12:58,35-35.53N,139-47.11E,185,20.111,24.9485
780,2021/5/18,12:59,35-35.32N,139-47.16E,161,20.11,24.8806
781,2021/5/18,13:00,35-35.14N,139-47.29E,144,20.118,24.9493
782,2021/5/18,13:01,35-34.98N,139-47.47E,136,19.99,25.1808
783,2021/5/18,13:02,35-34.81N,139-47.68E,136,19.939,25.9515
784,2021/5/18,13:03,35-34.63N,139-47.88E,136,19.905,26.9574
785,2021/5/18,13:04,35-34.46N,139-48.13E,127,19.942,27.3566
786,2021/5/18,13:05,35-34.30N,139-48.39E,126,19.892,27.7093
787,2021/5/18,13:06,35-34.12N,139-48.67E,127,19.848,27.8577
788,2021/5/18,13:07,35-33.94N,139-48.96E,127,19.924,27.9401
789,2021/5/18,13:08,35-33.77N,139-49.25E,127,19.929,28.0257
790,2021/5/18,13:09,35-33.58N,139-49.54E,127,19.871,28.3965
791,2021/5/18,13:10,35-33.40N,139-49.83E,127,19.816,28.7753
792,2021/5/18,13:11,35-33.21N,139-50.13E,127,19.837,28.9947
793,2021/5/18,13:12,35-33.01N,139-50.43E,133,19.833,29.1778
794,2021/5/18,13:13,35-32.74N,139-50.59E,165,19.891,29.2145
795,2021/5/18,13:14,35-32.43N,139-50.67E,168,19.755,28.7542
796,2021/5/18,13:15,35-32.12N,139-50.75E,167,19.613,28.5158
797,2021/5/18,13:16,35-31.80N,139-50.84E,167,19.566,29.1024
798,2021/5/18,13:17,35-31.48N,139-50.91E,172,19.56,29.4548
799,2021/5/18,13:18,35-31.15N,139-50.94E,175,19.408,29.6163
800,2021/5/18,13:19,35-30.82N,139-50.97E,176,19.299,29.7588
801,2021/5/18,13:20,35-30.45N,139-51.00E,175,19.25,29.9571
802,2021/5/18,13:21,35-30.16N,139-51.01E,180,19.25,30.0984
803,2021/5/18,13:22,35-29.83N,139-50.93E,193,19.294,30.1923
804,2021/5/18,13:23,35-29.51N,139-50.82E,195,19.281,30.2542
805,2021/5/18,13:24,35-29.19N,139-50.68E,204,19.291,30.324
806,2021/5/18,13:25,35-28.94N,139-50.43E,224,19.302,30.3889
807,2021/5/18,13:26,35-28.73N,139-50.12E,232,19.315,30.4259
808,2021/5/18,13:27,35-28.52N,139-49.79E,233,19.294,30.474
809,2021/5/18,13:28,35-28.33N,139-49.46E,233,19.285,30.5603
810,2021/5/18,13:29,35-28.13N,139-49.13E,233,19.189,30.6291
811,2021/5/18,13:30,35-27.93N,139-48.80E,233,19.141,30.735
812,2021/5/18,13:31,35-27.73N,139-48.46E,234,19.172,30.7856
813,2021/5/18,13:32,35-27.53N,139-48.12E,234,19.22,30.8387
814,2021/5/18,13:33,35-27.34N,139-47.79E,234,19.235,30.9001
815,2021/5/18,13:34,35-27.14N,139-47.45E,236,19.205,30.9703
816,2021/5/18,13:35,35-26.94N,139-47.12E,232,19.269,31.0843
817,2021/5/18,13:36,35-26.73N,139-46.80E,231,18.936,31.1421
818,2021/5/18,13:37,35-26.52N,139-46.47E,231,18.897,31.1623
819,2021/5/18,13:38,35-26.31N,139-46.14E,232,18.922,31.2014
820,2021/5/18,13:39,35-26.11N,139-45.81E,232,19.002,31.2233
821,2021/5/18,13:40,35-25.90N,139-45.48E,232,19.031,31.286
822,2021/5/18,13:41,35-25.70N,139-45.15E,233,19.002,31.3913
823,2021/5/18,13:42,35-25.50N,139-44.82E,233,18.907,31.4749
824,2021/5/18,13:43,35-25.29N,139-44.47E,233,18.862,31.5443
825,2021/5/18,13:44,35-25.10N,139-44.15E,233,18.818,31.6273
826,2021/5/18,13:45,35-24.89N,139-43.81E,233,18.783,31.6783
827,2021/5/18,13:46,35-24.70N,139-43.48E,234,18.762,31.7079
828,2021/5/18,13:47,35-24.47N,139-43.19E,216,18.758,31.7367
829,2021/5/18,13:48,35-24.14N,139-42.97E,207,18.762,31.7806
830,2021/5/18,13:49,35-23.85N,139-42.80E,205,18.831,31.8192
831,2021/5/18,13:50,35-23.55N,139-42.62E,205,18.912,31.8485
832,2021/5/18,13:51,35-23.26N,139-42.45E,206,18.868,31.8306
833,2021/5/18,13:52,35-22.95N,139-42.33E,191,18.895,31.7639
834,2021/5/18,13:53,35-22.63N,139-42.35E,177,18.849,31.6862
835,2021/5/18,13:54,35-22.32N,139-42.38E,176,18.895,31.6502
836,2021/5/18,13:55,35-22.01N,139-42.40E,176,18.876,31.7822
837,2021/5/18,13:56,35-21.71N,139-42.42E,177,18.722,31.9529
838,2021/5/18,13:57,35-21.42N,139-42.43E,177,18.658,32.1575
839,2021/5/18,13:58,35-21.13N,139-42.45E,177,18.715,32.3684
840,2021/5/18,13:59,35-20.87N,139-42.46E,177,18.619,32.4798
841,2021/5/18,14:00,35-20.62N,139-42.47E,177,18.312,32.4819
842,2021/5/18,14:01,35-20.39N,139-42.49E,177,18.307,32.447
843,2021/5/18,14:02,35-20.17N,139-42.50E,177,18.294,32.4251
844,2021/5/18,14:03,35-19.95N,139-42.51E,173,18.462,32.4267
845,2021/5/18,14:04,35-19.80N,139-42.62E,147,18.456,32.5109
846,2021/5/18,14:05,35-19.62N,139-42.77E,146,18.416,32.6248
847,2021/5/18,14:06,35-19.45N,139-42.90E,147,18.31,32.6974
848,2021/5/18,14:07,35-19.27N,139-43.04E,147,18.634,32.7474
849,2021/5/18,14:08,35-19.09N,139-43.18E,147,18.86,32.7737
850,2021/5/18,14:09,35-18.93N,139-43.31E,145,18.792,32.7489
851,2021/5/18,14:10,35-18.76N,139-43.45E,146,18.447,32.7302
852,2021/5/18,14:11,35-18.59N,139-43.60E,145,18.362,32.772
853,2021/5/18,14:12,35-18.41N,139-43.75E,145,18.463,32.8231
854,2021/5/18,14:13,35-18.24N,139-43.89E,145,18.571,32.8331
855,2021/5/18,14:14,35-18.06N,139-44.05E,145,18.773,32.8204
856,2021/5/18,14:15,35-17.87N,139-44.20E,145,19.096,32.7862
857,2021/5/18,14:16,35-17.70N,139-44.34E,145,18.652,32.7609
858,2021/5/18,14:17,35-17.53N,139-44.48E,145,18.767,32.7584
859,2021/5/18,14:18,35-17.35N,139-44.63E,145,18.637,32.7775
860,2021/5/18,14:19,35-17.18N,139-44.77E,145,18.664,32.7918
861,2021/5/18,14:20,35-17.00N,139-44.92E,145,18.724,32.8047
862,2021/5/18,14:21,35-16.83N,139-45.07E,146,18.794,32.7856
863,2021/5/18,14:22,35-16.65N,139-45.21E,146,18.798,32.755
864,2021/5/18,14:23,35-16.47N,139-45.36E,145,18.702,32.7468
865,2021/5/18,14:24,35-16.32N,139-45.48E,145,18.603,32.7517
866,2021/5/18,14:25,35-16.14N,139-45.63E,145,18.537,32.8181
867,2021/5/18,14:26,35-15.95N,139-45.79E,146,18.509,32.892
868,2021/5/18,14:27,35-15.77N,139-45.94E,145,18.512,32.9283
869,2021/5/18,14:28,35-15.60N,139-46.08E,145,18.47,32.9527
870,2021/5/18,14:29,35-15.42N,139-46.22E,150,18.57,32.9781
871,2021/5/18,14:30,35-15.22N,139-46.30E,164,18.633,33.03
872,2021/5/18,14:31,35-15.01N,139-46.31E,180,18.601,33.0339
873,2021/5/18,14:32,35-14.83N,139-46.31E,180,18.607,33.0527
874,2021/5/18,14:33,35-14.61N,139-46.30E,179,18.507,33.0964
875,2021/5/18,14:34,35-14.40N,139-46.30E,179,18.451,33.1273
876,2021/5/18,14:35,35-14.19N,139-46.30E,179,18.426,33.1576
877,2021/5/18,14:36,35-13.96N,139-46.31E,178,18.558,33.1833
878,2021/5/18,14:37,35-13.73N,139-46.32E,178,18.833,33.2207
879,2021/5/18,14:38,35-13.52N,139-46.33E,178,18.97,33.3082
880,2021/5/18,14:39,35-13.34N,139-46.33E,178,19.017,33.3585
881,2021/5/18,14:40,35-13.13N,139-46.34E,179,18.955,33.3859
882,2021/5/18,14:41,35-12.92N,139-46.34E,181,18.833,33.3981
883,2021/5/18,14:42,35-12.69N,139-46.29E,193,18.822,33.4023
884,2021/5/18,14:43,35-12.44N,139-46.21E,194,18.797,33.4018
885,2021/5/18,14:44,35-12.18N,139-46.13E,193,18.771,33.4045
886,2021/5/18,14:45,35-11.90N,139-46.04E,193,18.788,33.4053
887,2021/5/18,14:46,35-11.60N,139-45.95E,194,18.788,33.3851
888,2021/5/18,14:47,35-11.30N,139-45.86E,194,18.804,33.3692
889,2021/5/18,14:48,35-10.99N,139-45.76E,194,18.896,33.3744
890,2021/5/18,14:49,35-10.67N,139-45.66E,194,19.009,33.4021
891,2021/5/18,14:50,35-10.36N,139-45.56E,196,19.019,33.431
892,2021/5/18,14:51,35-10.05N,139-45.45E,196,19.042,33.4614
893,2021/5/18,14:52,35-09.74N,139-45.33E,196,18.982,33.4858
894,2021/5/18,14:53,35-09.42N,139-45.22E,196,18.9,33.5043
895,2021/5/18,14:54,35-09.10N,139-45.10E,196,18.855,33.538
896,2021/5/18,14:55,35-08.80N,139-45.00E,196,18.719,33.5858
897,2021/5/18,14:56,35-08.49N,139-44.86E,201,18.725,33.5872
898,2021/5/18,14:57,35-08.19N,139-44.70E,204,18.743,33.562
899,2021/5/18,14:58,35-07.90N,139-44.54E,204,18.793,33.5416
900,2021/5/18,14:59,35-07.60N,139-44.37E,204,18.752,33.5223
901,2021/5/18,15:00,35-07.31N,139-44.21E,204,18.709,33.5711
902,2021/5/18,15:01,35-07.01N,139-44.05E,204,18.73,33.6509
903,2021/5/18,15:02,35-06.72N,139-43.89E,203,18.692,33.723
904,2021/5/18,15:03,35-06.42N,139-43.73E,203,18.695,33.7586
905,2021/5/18,15:04,35-06.12N,139-43.57E,203,18.685,33.7798
906,2021/5/18,15:05,35-05.83N,139-43.41E,203,18.634,33.7945
907,2021/5/18,15:06,35-05.54N,139-43.25E,204,18.692,33.7946
908,2021/5/18,15:07,35-05.24N,139-43.09E,204,18.702,33.8168
909,2021/5/18,15:08,35-04.95N,139-42.93E,205,18.738,33.83
910,2021/5/18,15:09,35-04.65N,139-42.75E,205,18.689,33.8597
911,2021/5/18,15:10,35-04.37N,139-42.59E,205,18.596,33.8782
912,2021/5/18,15:11,35-04.07N,139-42.42E,205,18.511,33.8873
913,2021/5/18,15:12,35-03.78N,139-42.25E,204,18.585,33.8889
914,2021/5/18,15:13,35-03.49N,139-42.10E,204,18.654,33.8975
915,2021/5/18,15:14,35-03.19N,139-41.93E,203,18.68,33.9119
916,2021/5/18,15:15,35-02.89N,139-41.81E,198,18.769,33.903
917,2021/5/18,15:16,35-02.59N,139-41.69E,197,18.874,33.8871
918,2021/5/18,15:17,35-02.27N,139-41.57E,196,18.952,33.8296
919,2021/5/18,15:18,35-01.96N,139-41.46E,196,18.914,33.7633
920,2021/5/18,15:19,35-01.64N,139-41.35E,196,18.824,33.6636
921,2021/5/18,15:20,35-01.33N,139-41.23E,196,18.742,33.5653
922,2021/5/18,15:21,35-01.02N,139-41.12E,196,18.686,33.5214
923,2021/5/18,15:22,35-00.69N,139-41.00E,196,18.644,33.5289
924,2021/5/18,15:23,35-00.38N,139-40.89E,196,18.696,33.5615
925,2021/5/18,15:24,35-00.06N,139-40.78E,195,18.81,33.6073
926,2021/5/18,15:25,34-59.74N,139-40.67E,195,18.919,33.6463
927,2021/5/18,15:26,34-59.42N,139-40.57E,195,19.086,33.6758
928,2021/5/18,15:27,34-59.10N,139-40.45E,195,19.149,33.7614
929,2021/5/18,15:28,34-58.78N,139-40.35E,194,19.238,33.8301
930,2021/5/18,15:29,34-58.45N,139-40.25E,193,19.282,33.8757
931,2021/5/18,15:30,34-58.12N,139-40.16E,193,19.351,33.9327
932,2021/5/18,15:31,34-57.80N,139-40.08E,187,19.322,33.9368
933,2021/5/18,15:32,34-57.46N,139-40.11E,170,19.223,33.9421
934,2021/5/18,15:33,34-57.15N,139-40.25E,154,19.327,33.9394
935,2021/5/18,15:34,34-56.85N,139-40.49E,145,19.42,33.9556
936,2021/5/18,15:35,34-56.57N,139-40.73E,145,19.499,33.9697
937,2021/5/18,15:36,34-56.28N,139-40.97E,145,19.574,33.9846
938,2021/5/18,15:37,34-55.99N,139-41.23E,143,19.582,33.9915
939,2021/5/18,15:38,34-55.70N,139-41.47E,147,19.561,33.9912
940,2021/5/18,15:39,34-55.39N,139-41.70E,148,19.627,33.998
941,2021/5/18,15:40,34-55.09N,139-41.92E,148,19.77,34.0049
942,2021/5/18,15:41,34-54.78N,139-42.16E,148,19.864,34.0109
943,2021/5/18,15:42,34-54.46N,139-42.39E,148,19.939,34.0248
944,2021/5/18,15:43,34-54.16N,139-42.63E,147,19.957,34.0293
945,2021/5/18,15:44,34-53.85N,139-42.87E,147,19.932,34.0348
946,2021/5/18,15:45,34-53.54N,139-43.11E,147,19.917,34.0358
947,2021/5/18,15:46,34-53.23N,139-43.34E,148,19.932,34.0362
948,2021/5/18,15:47,34-52.91N,139-43.57E,149,19.957,34.0283
949,2021/5/18,15:48,34-52.60N,139-43.80E,148,19.995,34.0365
950,2021/5/18,15:49,34-52.28N,139-44.04E,148,20.045,34.0389
951,2021/5/18,15:50,34-51.97N,139-44.26E,150,20.07,34.0365
952,2021/5/18,15:51,34-51.65N,139-44.49E,148,20.086,34.0378
953,2021/5/18,15:52,34-51.34N,139-44.76E,143,20.105,34.0387
954,2021/5/18,15:53,34-51.06N,139-45.03E,138,20.143,34.0459
955,2021/5/18,15:54,34-50.79N,139-45.34E,136,20.152,34.047
956,2021/5/18,15:55,34-50.53N,139-45.65E,135,20.104,34.0416
957,2021/5/18,15:56,34-50.27N,139-45.96E,135,19.931,34.0417
958,2021/5/18,15:57,34-50.00N,139-46.28E,136,19.841,34.0363
959,2021/5/18,15:58,34-49.75N,139-46.59E,132,19.806,34.0301
960,2021/5/18,15:59,34-49.55N,139-46.94E,121,19.826,34.0323
961,2021/5/18,16:00,34-49.40N,139-47.32E,113,19.814,34.026
962,2021/5/18,16:01,34-49.27N,139-47.71E,111,19.755,34.0283
963,2021/5/18,16:02,34-49.17N,139-48.10E,106,19.639,34.0128
964,2021/5/18,16:03,34-49.09N,139-48.48E,103,19.249,34.0126
965,2021/5/18,16:04,34-49.04N,139-48.87E,96,19.116,33.9727
966,2021/5/18,16:05,34-49.02N,139-49.25E,92,18.801,33.9731
967,2021/5/18,16:06,34-49.02N,139-49.62E,89,18.662,33.9477
968,2021/5/18,16:07,34-49.03N,139-50.00E,87,18.601,33.9478
969,2021/5/18,16:08,34-49.05N,139-50.36E,86,18.562,33.9181
970,2021/5/18,16:09,34-49.07N,139-50.74E,85,18.514,33.8641
971,2021/5/18,16:10,34-49.09N,139-51.10E,85,18.499,33.8353
972,2021/5/18,16:11,34-49.12N,139-51.48E,85,18.481,33.8193
973,2021/5/18,16:12,34-49.14N,139-51.86E,84,18.457,33.8197
974,2021/5/18,16:13,34-49.18N,139-52.22E,84,18.384,33.8269
975,2021/5/18,16:14,34-49.21N,139-52.60E,84,18.282,33.8283
976,2021/5/18,16:15,34-49.24N,139-52.97E,83,18.218,33.8241
977,2021/5/18,16:16,34-49.28N,139-53.35E,81,18.13,33.8264
978,2021/5/18,16:17,34-49.35N,139-53.72E,75,18.017,33.8278
979,2021/5/18,16:18,34-49.44N,139-54.07E,69,17.94,33.8189
980,2021/5/18,16:19,34-49.55N,139-54.43E,69,17.835,33.8279
981,2021/5/18,16:20,34-49.66N,139-54.79E,70,17.768,33.8312
982,2021/5/18,16:21,34-49.76N,139-55.15E,70,17.736,33.8371
983,2021/5/18,16:22,34-49.88N,139-55.51E,66,17.563,33.8337
984,2021/5/18,16:23,34-50.01N,139-55.85E,64,17.566,33.8387
985,2021/5/18,16:24,34-50.15N,139-56.19E,64,17.47,33.8599
986,2021/5/18,16:25,34-50.28N,139-56.53E,62,17.719,33.8389
987,2021/5/18,16:26,34-50.43N,139-56.86E,61,18.225,33.8497
988,2021/5/18,16:27,34-50.57N,139-57.19E,62,18.239,33.8806
989,2021/5/18,16:28,34-50.72N,139-57.51E,62,18.231,33.8883
990,2021/5/18,16:29,34-50.86N,139-57.84E,62,17.736,33.8657
991,2021/5/18,16:30,34-51.01N,139-58.18E,62,18.004,33.838
992,2021/5/18,16:31,34-51.15N,139-58.50E,61,18.298,33.8604
993,2021/5/18,16:32,34-51.29N,139-58.82E,62,18.135,33.8715
994,2021/5/18,16:33,34-51.43N,139-59.14E,63,18.083,33.884
995,2021/5/18,16:34,34-51.56N,139-59.47E,63,18.148,33.9027
996,2021/5/18,16:35,34-51.70N,139-59.81E,62,18.116,33.9188
997,2021/5/18,16:36,34-51.84N,140-00.12E,61,18.199,33.9146
998,2021/5/18,16:37,34-51.99N,140-00.47E,62,18.219,33.9331
999,2021/5/18,16:38,34-52.14N,140-00.81E,62,18.285,33.9278
1000,2021/5/18,16:39,34-52.27N,140-01.14E,62,18.313,33.9318
1001,2021/5/18,16:40,34-52.42N,140-01.47E,61,18.363,33.9233
1002,2021/5/18,16:41,34-52.56N,140-01.79E,62,18.313,33.9273
1003,2021/5/18,16:42,34-52.70N,140-02.13E,62,18.386,33.9301
1004,2021/5/18,16:43,34-52.82N,140-02.41E,61,18.385,33.9342
1005,2021/5/18,16:44,34-52.96N,140-02.73E,62,18.357,33.9368
1006,2021/5/18,16:45,34-53.10N,140-03.06E,62,18.37,33.9274
1007,2021/5/18,16:46,34-53.24N,140-03.38E,62,18.396,33.9356
1008,2021/5/18,16:47,34-53.39N,140-03.71E,62,18.384,33.9271
1009,2021/5/18,16:48,34-53.53N,140-04.03E,62,18.347,33.9319
1010,2021/5/18,16:49,34-53.67N,140-04.35E,61,18.34,33.9312
1011,2021/5/18,16:50,34-53.81N,140-04.68E,61,18.304,33.9251
1012,2021/5/18,16:51,34-53.95N,140-04.99E,61,18.298,33.9262
1013,2021/5/18,16:52,34-54.09N,140-05.31E,61,18.206,33.9266
1014,2021/5/18,16:53,34-54.23N,140-05.62E,61,18.249,33.9319
1015,2021/5/18,16:54,34-54.37N,140-05.94E,60,18.326,33.9324
1016,2021/5/18,16:55,34-54.52N,140-06.26E,60,18.349,33.935
1017,2021/5/18,16:56,34-54.67N,140-06.57E,60,18.461,33.923
1018,2021/5/18,16:57,34-54.84N,140-06.93E,59,18.457,33.9345
1019,2021/5/18,16:58,34-54.97N,140-07.19E,59,18.452,33.9215
1020,2021/5/18,16:59,34-55.12N,140-07.51E,59,18.461,33.9266
1021,2021/5/18,17:00,34-55.27N,140-07.83E,60,18.486,33.9172
1022,2021/5/18,17:01,34-55.44N,140-08.17E,59,18.465,33.9217
1023,2021/5/18,17:02,34-55.60N,140-08.51E,59,18.566,33.9209
1024,2021/5/18,17:03,34-55.75N,140-08.82E,59,18.541,33.9199
1025,2021/5/18,17:04,34-55.90N,140-09.13E,59,18.572,33.9176
1026,2021/5/18,17:05,34-56.05N,140-09.45E,59,18.567,33.921
1027,2021/5/18,17:06,34-56.20N,140-09.75E,58,18.546,33.9277
1028,2021/5/18,17:07,34-56.36N,140-10.07E,58,18.574,33.9169
1029,2021/5/18,17:08,34-56.49N,140-10.34E,58,18.586,33.9222
1030,2021/5/18,17:09,34-56.65N,140-10.64E,58,18.545,33.9274
1031,2021/5/18,17:10,34-56.81N,140-10.96E,59,18.528,33.9204
1032,2021/5/18,17:11,34-56.96N,140-11.27E,59,18.508,33.9198
1033,2021/5/18,17:12,34-57.11N,140-11.59E,58,18.461,33.9187
1034,2021/5/18,17:13,34-57.27N,140-11.90E,58,18.484,33.9192
1035,2021/5/18,17:14,34-57.42N,140-12.22E,58,18.469,33.9119
1036,2021/5/18,17:15,34-57.58N,140-12.54E,59,18.455,33.9079
1037,2021/5/18,17:16,34-57.74N,140-12.85E,59,18.466,33.9018
1038,2021/5/18,17:17,34-57.89N,140-13.17E,59,18.428,33.8943
1039,2021/5/18,17:18,34-58.05N,140-13.48E,59,18.511,33.8838
1040,2021/5/18,17:19,34-58.21N,140-13.79E,57,18.551,33.8869
1041,2021/5/18,17:20,34-58.38N,140-14.11E,56,18.577,33.8724
1042,2021/5/18,17:21,34-58.54N,140-14.41E,57,18.57,33.8562
1043,2021/5/18,17:22,34-58.70N,140-14.73E,57,18.571,33.8594
1044,2021/5/18,17:23,34-58.87N,140-15.03E,56,18.606,33.861
1045,2021/5/18,17:24,34-59.03N,140-15.34E,56,18.632,33.8643
1046,2021/5/18,17:25,34-59.21N,140-15.65E,56,18.708,33.8585
1047,2021/5/18,17:26,34-59.37N,140-15.96E,56,18.759,33.8614
1048,2021/5/18,17:27,34-59.54N,140-16.28E,57,18.779,33.8553
1049,2021/5/18,17:28,34-59.71N,140-16.58E,57,18.774,33.8527
1050,2021/5/18,17:29,34-59.88N,140-16.90E,57,18.766,33.8503
1051,2021/5/18,17:30,35-00.04N,140-17.22E,56,18.721,33.8577
1052,2021/5/18,17:31,35-00.21N,140-17.53E,57,18.748,33.8678
1053,2021/5/18,17:32,35-00.38N,140-17.84E,57,18.813,33.871
1054,2021/5/18,17:33,35-00.54N,140-18.15E,57,18.797,33.8692
1055,2021/5/18,17:34,35-00.70N,140-18.46E,57,18.847,33.8594
1056,2021/5/18,17:35,35-00.88N,140-18.78E,57,18.865,33.8671
1057,2021/5/18,17:36,35-01.04N,140-19.09E,56,18.871,33.859
1058,2021/5/18,17:37,35-01.21N,140-19.40E,57,18.871,33.8598
1059,2021/5/18,17:38,35-01.37N,140-19.72E,57,18.895,33.8606
1060,2021/5/18,17:39,35-01.54N,140-20.05E,60,18.897,33.8568
1061,2021/5/18,17:40,35-01.69N,140-20.38E,60,18.903,33.8576
1062,2021/5/18,17:41,35-01.84N,140-20.70E,60,18.842,33.8601
1063,2021/5/18,17:42,35-02.00N,140-21.02E,59,18.879,33.8618
1064,2021/5/18,17:43,35-02.14N,140-21.34E,59,18.858,33.8648
1065,2021/5/18,17:44,35-02.30N,140-21.66E,59,18.871,33.8646
1066,2021/5/18,17:45,35-02.46N,140-21.99E,59,18.832,33.8588
1067,2021/5/18,17:46,35-02.61N,140-22.32E,59,18.817,33.8601
1068,2021/5/18,17:47,35-02.77N,140-22.65E,60,18.777,33.8612
1069,2021/5/18,17:48,35-02.93N,140-22.98E,58,18.745,33.8478
1070,2021/5/18,17:49,35-03.09N,140-23.30E,58,18.708,33.8603
1071,2021/5/18,17:50,35-03.26N,140-23.64E,59,18.678,33.8695
1072,2021/5/18,17:51,35-03.43N,140-23.95E,55,18.654,33.863
1073,2021/5/18,17:52,35-03.64N,140-24.31E,54,18.623,33.8655
1074,2021/5/18,17:53,35-03.82N,140-24.62E,53,18.6,33.8634
1075,2021/5/18,17:54,35-04.01N,140-24.93E,53,18.365,33.877
1076,2021/5/18,17:55,35-04.17N,140-25.20E,53,18.164,33.8715
1077,2021/5/18,17:56,35-04.36N,140-25.50E,52,18.105,33.8957
1078,2021/5/18,17:57,35-04.55N,140-25.80E,51,18.081,33.9058
1079,2021/5/18,17:58,35-04.75N,140-26.11E,51,18.096,33.9167
1080,2021/5/18,17:59,35-04.94N,140-26.40E,51,18.088,33.9271
1081,2021/5/18,18:00,35-05.14N,140-26.70E,49,18.101,33.9381
1082,2021/5/18,18:01,35-05.34N,140-26.98E,48,18.111,33.9389
1083,2021/5/18,18:02,35-05.55N,140-27.27E,48,18.16,33.9412
1084,2021/5/18,18:03,35-05.79N,140-27.49E,30,18.243,33.9445
1085,2021/5/18,18:04,35-06.06N,140-27.63E,22,18.08,33.9433
1086,2021/5/18,18:05,35-06.35N,140-27.77E,20,18.199,33.9417
1087,2021/5/18,18:06,35-06.63N,140-27.89E,20,18.393,33.9421
1088,2021/5/18,18:07,35-06.91N,140-28.03E,21,18.483,33.9554
1089,2021/5/18,18:08,35-07.21N,140-28.16E,20,18.6,33.94
1090,2021/5/18,18:09,35-07.50N,140-28.30E,20,18.494,33.9491
1091,2021/5/18,18:10,35-07.79N,140-28.45E,22,18.349,33.9488
1092,2021/5/18,18:11,35-08.07N,140-28.60E,25,18.088,33.9346
1093,2021/5/18,18:12,35-08.34N,140-28.78E,27,17.578,33.9352
1094,2021/5/18,18:13,35-08.62N,140-28.97E,30,16.884,33.9161
1095,2021/5/18,18:14,35-08.88N,140-29.17E,33,16.11,33.9092
1096,2021/5/18,18:15,35-09.14N,140-29.38E,33,15.633,33.8421
1097,2021/5/18,18:16,35-09.39N,140-29.58E,33,15.372,33.8567
1098,2021/5/18,18:17,35-09.65N,140-29.78E,33,15.358,33.828
1099,2021/5/18,18:18,35-09.91N,140-29.98E,31,15.555,33.8256
1100,2021/5/18,18:19,35-10.17N,140-30.17E,31,15.636,33.8387
1101,2021/5/18,18:20,35-10.43N,140-30.36E,31,15.55,33.8291
1102,2021/5/18,18:21,35-10.68N,140-30.55E,32,15.446,33.8313
1103,2021/5/18,18:22,35-10.93N,140-30.74E,32,15.7,33.832
1104,2021/5/18,18:23,35-11.18N,140-30.94E,33,15.671,33.834
1105,2021/5/18,18:24,35-11.42N,140-31.14E,34,15.747,33.8329
1106,2021/5/18,18:25,35-11.66N,140-31.34E,34,15.712,33.8433
1107,2021/5/18,18:26,35-11.91N,140-31.54E,33,15.661,33.8503
1108,2021/5/18,18:27,35-12.15N,140-31.74E,34,15.695,33.8388
1109,2021/5/18,18:28,35-12.40N,140-31.94E,33,15.775,33.8559
1110,2021/5/18,18:29,35-12.64N,140-32.13E,33,15.588,33.8555
1111,2021/5/18,18:30,35-12.88N,140-32.33E,34,15.469,33.8613
1112,2021/5/18,18:31,35-13.12N,140-32.53E,34,15.434,33.8513
1113,2021/5/18,18:32,35-13.37N,140-32.74E,34,15.4,33.8596
1114,2021/5/18,18:33,35-13.62N,140-32.94E,33,15.565,33.8601
1115,2021/5/18,18:34,35-13.86N,140-33.13E,33,15.388,33.8742
1116,2021/5/18,18:35,35-14.10N,140-33.33E,33,15.468,33.8579
1117,2021/5/18,18:36,35-14.35N,140-33.53E,34,15.504,33.8627
1118,2021/5/18,18:37,35-14.59N,140-33.74E,33,15.537,33.869
1119,2021/5/18,18:38,35-14.84N,140-33.94E,33,15.639,33.8764
1120,2021/5/18,18:39,35-15.08N,140-34.13E,33,15.698,33.8791
1121,2021/5/18,18:40,35-15.33N,140-34.33E,33,15.774,33.8815
1122,2021/5/18,18:41,35-15.57N,140-34.53E,33,15.959,33.8877
1123,2021/5/18,18:42,35-15.81N,140-34.72E,34,16.046,33.8984
1124,2021/5/18,18:43,35-16.05N,140-34.93E,34,16.141,33.8972
1125,2021/5/18,18:44,35-16.29N,140-35.12E,34,16.168,33.9053
1126,2021/5/18,18:45,35-16.53N,140-35.32E,33,16.166,33.9052
1127,2021/5/18,18:46,35-16.77N,140-35.52E,33,16.273,33.9021
1128,2021/5/18,18:47,35-17.02N,140-35.72E,34,16.206,33.9115
1129,2021/5/18,18:48,35-17.26N,140-35.93E,34,15.972,33.9106
1130,2021/5/18,18:49,35-17.50N,140-36.12E,34,16.158,33.9121
1131,2021/5/18,18:50,35-17.75N,140-36.33E,34,16.412,33.9139
1132,2021/5/18,18:51,35-17.98N,140-36.53E,35,16.402,33.9285
1133,2021/5/18,18:52,35-18.22N,140-36.74E,34,16.304,33.9233
1134,2021/5/18,18:53,35-18.47N,140-36.94E,33,16.294,33.9053
1135,2021/5/18,18:54,35-18.71N,140-37.13E,34,16.416,33.9098
1136,2021/5/18,18:55,35-18.95N,140-37.34E,34,16.423,33.9238
1137,2021/5/18,18:56,35-19.19N,140-37.54E,33,16.368,33.9241
1138,2021/5/18,18:57,35-19.44N,140-37.74E,34,16.206,33.9121
1139,2021/5/18,18:58,35-19.68N,140-37.95E,34,16.054,33.9115
1140,2021/5/18,18:59,35-19.93N,140-38.15E,34,15.724,33.9002
1141,2021/5/18,19:00,35-20.18N,140-38.36E,34,15.682,33.8917
1142,2021/5/18,19:01,35-20.43N,140-38.56E,34,15.494,33.8893
1143,2021/5/18,19:02,35-20.67N,140-38.77E,33,15.29,33.8814
1144,2021/5/18,19:03,35-20.93N,140-38.97E,32,15.105,33.8716
1145,2021/5/18,19:04,35-21.18N,140-39.16E,30,14.985,33.865
1146,2021/5/18,19:05,35-21.44N,140-39.36E,31,15.059,33.8549
1147,2021/5/18,19:06,35-21.70N,140-39.56E,31,14.915,33.8626
1148,2021/5/18,19:07,35-21.95N,140-39.75E,33,15.083,33.8625
1149,2021/5/18,19:08,35-22.21N,140-39.95E,32,14.912,33.8699
1150,2021/5/18,19:09,35-22.46N,140-40.14E,30,14.982,33.856
1151,2021/5/18,19:10,35-22.72N,140-40.33E,33,15.034,33.8598
1152,2021/5/18,19:11,35-22.97N,140-40.54E,34,15.021,33.8656
1153,2021/5/18,19:12,35-23.21N,140-40.75E,35,14.947,33.8637
1154,2021/5/18,19:13,35-23.46N,140-40.96E,34,14.991,33.8542
1155,2021/5/18,19:14,35-23.71N,140-41.17E,34,14.966,33.865
1156,2021/5/18,19:15,35-23.95N,140-41.38E,36,14.927,33.863
1157,2021/5/18,19:16,35-24.19N,140-41.62E,39,14.813,33.8611
1158,2021/5/18,19:17,35-24.41N,140-41.84E,39,14.83,33.8569
1159,2021/5/18,19:18,35-24.64N,140-42.08E,41,14.922,33.8663
1160,2021/5/18,19:19,35-24.85N,140-42.33E,42,14.943,33.8771
1161,2021/5/18,19:20,35-25.07N,140-42.58E,42,14.953,33.8697
1162,2021/5/18,19:21,35-25.28N,140-42.84E,46,14.911,33.8752
1163,2021/5/18,19:22,35-25.48N,140-43.10E,46,14.935,33.862
1164,2021/5/18,19:23,35-25.69N,140-43.36E,47,15.029,33.8718
1165,2021/5/18,19:24,35-25.89N,140-43.62E,46,15.07,33.8738
1166,2021/5/18,19:25,35-26.09N,140-43.89E,47,15.105,33.8814
1167,2021/5/18,19:26,35-26.29N,140-44.16E,47,15.136,33.8795
1168,2021/5/18,19:27,35-26.49N,140-44.42E,47,15.174,33.8808
1169,2021/5/18,19:28,35-26.70N,140-44.69E,47,15.241,33.8786
1170,2021/5/18,19:29,35-26.89N,140-44.95E,47,15.283,33.8838
1171,2021/5/18,19:30,35-27.10N,140-45.22E,46,15.364,33.8915